Location: Unspecified
(0.0000°N, 0.0000°E)
Time: 05:56:18
(UTC+00:00)

METEOR M2 - Pass Details

Date: 10 July 2020
Orbit: 818 x 828 km, 98.5° (Epoch: 13 August)

Event Time Altitude Azimuth Distance (km) Brightness Sun altitude
Exits shadow 20:31:08 39° 254° (WSW) 1,213 ? -33.4°
Maximum altitude 20:31:17 39° 257° (WSW) 1,211 ? -33.4°
Drops below altitude 10° 20:36:16 10° 326° (NW) 2,421 ? -34.5°
Sets 20:38:45 0° 333° (NNW) 3,352 ? -35.1°
